Miscellaneous Local Product
Issued by NWS Hastings, NE

Home | Current Version | Previous Version | Graphics & Text | Print | Product List | Glossary On
Versions: 1 2 3 4 5 6 7 8 9 10 11 12 13 14 15 16 17 18 19 20 21 22 23 24 25 26 27 28 29 30 31 32 33 34 35 36 37 38 39 40 41 42 43 44 45 46 47 48 49 50
000
AXUS43 KGID 242202
MISGRI

GID CWA HOURLY WEATHER ROUNDUP
NATIONAL WEATHER SERVICE HASTINGS NE
500 PM CDT WED AUG 24 2016

NOTE: "FAIR" INDICATES FEW OR NO CLOUDS BELOW 12,000 FEET WITH NO
SIGNIFICANT WEATHER AND/OR OBSTRUCTIONS TO VISIBILITY.

...SOUTH CENTRAL NEBRASKA...

CITY           SKY/WX    TMP DP  RH WIND       PRES   REMARKS
GRAND ISLAND   CLOUDY    70  55  59 NE7       30.08F
HASTINGS       CLOUDY    70  59  68 NW7       30.10R
KEARNEY        CLOUDY    72  55  56 NE10      30.10S
ORD            PTSUNNY   77  49  37 E6        30.10F
YORK           LGT RAIN  68  59  73 E9        30.06F
AURORA         CLOUDY    71  61  71 N6        30.08S
LEXINGTON      MOSUNNY   78  45  31 NE13      30.12R
HOLDREGE       PTSUNNY   72  51  47 NE12      30.12R
HEBRON         LGT RAIN  64  63  94 E13       30.05F

...NEBRASKA PANHANDLE...

CITY           SKY/WX    TMP DP  RH WIND       PRES   REMARKS
CHADRON        SUNNY     77  40  26 E9        30.13F
ALLIANCE       CLOUDY    72  42  34 SE6       30.16S
SCOTTSBLUFF    CLOUDY    74  47  38 E10       30.13F
SIDNEY         MOSUNNY   71  38  29 SE9       30.19F

...WESTERN AND NORTH CENTRAL NEBRASKA...

CITY           SKY/WX    TMP DP  RH WIND       PRES   REMARKS
VALENTINE      MOSUNNY   70  47  43 CALM      30.14S
AINSWORTH      CLOUDY    70  53  54 CALM      30.14F
ONEILL         CLOUDY    79  47  31 N7        30.10S
BROKEN BOW     CLOUDY    76  48  37 NE8       30.12F
IMPERIAL       CLOUDY    77  36  22 E12       30.15R
NORTH PLATTE   CLOUDY    77  45  32 E9        30.13S
MCCOOK         CLOUDY    76  43  30 NE15      30.12S

...EASTERN NEBRASKA...

CITY           SKY/WX    TMP DP  RH WIND       PRES   REMARKS
NORFOLK        PTSUNNY   71  55  56 NW3       30.10R
SO SIOUX CITY  CLOUDY    72  62  71 NW8       30.06S
TEKAMAH        CLOUDY    73  63  70 NW9       30.05R
COLUMBUS       CLOUDY    70  55  60 N7        30.08F
ALBION         CLOUDY    70  58  66 NE3       30.09F
OMAHA EPPLEY   CLOUDY    76  63  64 NW8       30.03R
OFFUTT AFB     CLOUDY    74  67  79 N10       30.00F
MILLARD        LGT RAIN  76  62  60 N5        30.03F
LINCOLN        LGT RAIN  71  65  81 N8        30.05F
NEBRASKA CITY  RAIN      72  71  96 CALM      30.03S
BEATRICE       HVY RAIN  67  65  91 N14G22    30.02S
FALLS CITY     CLOUDY    79  73  82 MISG      29.99F

...NORTHERN KANSAS...

CITY           SKY/WX    TMP DP  RH WIND       PRES   REMARKS
GOODLAND       CLOUDY    65  44  46 E17       30.16S
HILL CITY      CLOUDY    71  55  56 NE16      30.09S
NORTON         CLOUDY    73  43  33 NE13      30.10
SMITH CENTER   CLOUDY    64  61  88 N8        30.08R
BELOIT         CLOUDY    64  61  88 NE8       30.05R
HAYS           CLOUDY    75  55  50 NE16      30.05F
RUSSELL        CLOUDY    74  63  68 NE16G24   30.03F
CONCORDIA      CLOUDY    66  62  87 NE18G25   30.05F
SALINA         CLOUDY    79  71  76 N16       30.01R
TOPEKA         CLOUDY    88  70  55 E7        29.98F HX  93



USA.gov is the U.S. government's official web portal to all federal, state and local government web resources and services.